Theta_e
316 318 319 319 319 318 318 318 318 318 318 317 316 314 313 314 315 316 317 319 322 326 329 328 329 330 328 328 327 325 325 324 323 323 323 326 326 326 331 331 327 327 328
313 314 317 317 317 317 318 318 318 317 317 316 314 313 313 312 312 312 314 317 319 323 325 326 326 326 326 325 324 324 323 323 323 323 325 326 327 329 330 328 325 323 324
310 310 311 312 312 312 312 313 316 315 314 315 313 313 313 312 312 312 314 317 318 321 324 325 325 324 324 323 324 323 323 326 326 325 327 327 327 327 326 323 323 323 328
308 308 308 309 309 309 309 309 310 311 312 312 312 313 314 312 312 313 313 313 317 318 323 324 324 324 323 323 322 323 323 328 329 326 325 323 323 324 326 329 330 330 330
308 308 307 307 307 307 307 307 307 309 310 312 312 313 313 314 314 313 314 314 316 318 317 322 324 323 323 322 322 322 323 326 326 325 324 322 323 325 325 322 320 320 319
307 306 306 307 307 307 307 307 306 306 307 309 309 309 309 309 309 310 312 315 315 317 318 321 322 323 323 322 323 322 322 326 326 325 323 323 322 321 318 317 319 320 312
305 305 305 305 305 305 306 306 306 306 306 306 307 308 308 308 308 308 307 307 309 313 317 317 320 321 323 323 321 321 324 326 326 327 324 323 320 318 315 317 320 319 318
304 303 303 303 303 303 303 304 304 304 304 305 305 306 307 307 307 306 306 306 306 308 314 316 317 317 318 323 324 324 322 322 324 327 325 325 322 315 313 315 317 317 319
302 302 302 301 300 300 301 300 300 300 303 304 305 305 306 306 306 305 306 310 310 310 314 316 316 317 318 319 323 324 323 325 326 325 325 321 313 314 317 318 317 317 316
301 301 300 298 299 299 298 300 300 299 302 306 305 305 305 305 305 304 304 306 310 313 315 315 316 317 319 321 322 322 320 324 323 314 314 315 317 318 318 318 317 317 318
298 298 298 296 296 296 296 297 296 298 299 300 304 305 305 305 305 304 304 305 308 313 314 316 317 318 320 321 320 319 324 319 313 314 317 317 318 318 318 319 319 317 318
296 296 295 294 295 295 295 295 296 298 300 302 304 304 304 304 304 304 304 307 308 311 315 316 316 316 320 321 318 318 323 316 314 317 318 319 319 319 319 319 319 318 317
294 293 293 292 293 293 294 294 295 295 296 302 304 305 304 304 305 305 306 307 306 308 314 316 317 316 318 316 319 315 315 313 318 319 320 320 320 320 320 320 319 318 319
292 292 292 292 291 292 293 294 295 296 297 298 301 303 303 303 304 305 305 306 307 309 313 317 319 317 316 315 315 318 317 317 319 320 321 322 321 321 321 320 319 318 321
291 291 291 291 291 292 293 293 294 295 296 298 299 300 301 304 306 305 306 307 309 310 313 315 317 317 317 316 316 316 317 321 322 322 322 322 321 321 321 321 319 318 321
289 290 290 291 291 292 293 293 294 293 294 295 296 296 298 300 304 305 304 305 306 308 311 312 315 316 317 316 314 314 315 314 318 321 322 322 321 321 321 319 318 319 320
288 288 289 290 290 291 291 292 294 294 294 295 295 296 296 297 300 305 305 306 307 309 312 312 314 316 317 317 317 317 317 318 318 319 320 321 320 320 320 318 318 318 318
287 288 289 290 290 291 291 292 293 294 295 296 295 296 296 296 299 303 304 305 305 306 310 313 314 315 317 318 318 319 319 319 318 319 320 320 320 319 318 318 317 317 318
288 289 290 291 291 292 292 292 292 293 294 295 296 296 296 296 298 300 302 302 303 304 305 307 312 316 318 319 320 320 320 320 319 319 319 319 319 318 318 318 318 318 319
288 289 290 292 293 294 293 293 293 293 294 295 296 296 297 297 296 297 298 300 301 303 304 306 307 310 316 318 319 320 320 320 319 319 319 319 318 318 319 318 318 317 318
288 290 292 294 300 297 296 295 294 294 294 295 295 296 297 298 299 299 299 299 300 302 303 305 307 307 311 317 318 319 319 320 319 319 320 320 320 319 319 319 319 320 318
289 292 298 304 306 306 302 300 298 296 294 294 295 296 297 297 300 300 300 300 300 301 303 304 306 307 308 313 317 318 319 319 319 320 321 321 321 320 320 320 319 319 318
292 295 298 300 302 303 305 301 299 297 296 295 296 296 296 298 299 299 300 300 301 301 303 304 305 306 308 310 315 317 318 317 317 318 318 319 320 320 320 320 319 319 319
291 293 295 297 298 299 301 301 299 298 298 297 297 298 297 298 299 300 300 300 300 301 302 304 304 305 308 309 314 317 317 315 314 315 317 319 319 319 320 320 320 319 317
289 291 292 294 295 296 297 300 303 301 300 299 299 299 299 299 299 300 301 300 300 301 302 303 304 305 307 311 313 314 314 314 314 314 313 313 316 319 321 320 320 320 320
288 289 290 291 292 292 294 295 298 302 303 302 301 300 300 300 300 301 302 302 301 301 302 303 304 305 307 309 312 313 312 312 312 313 313 314 316 320 321 320 321 320 317
Wind_Speed
16 18 20 20 19 18 20 21 21 19 19 17 16 14 12 12 14 15 20 22 24 27 28 29 33 37 38 37 34 32 32 25 10 15 25 27 29 34 29 25 18 15 13
11 12 15 18 18 20 22 24 23 24 23 22 18 16 14 13 15 18 19 21 26 29 30 25 31 30 33 31 30 32 30 28 20 15 12 17 20 23 24 20 16 13 12
16 16 15 15 15 17 19 21 22 22 23 22 21 20 18 15 14 16 18 21 25 28 31 25 28 25 25 28 29 29 31 23 25 17 13 13 19 16 15 15 11 13 12
21 22 22 23 23 23 24 25 25 25 27 27 26 25 22 20 17 15 16 19 25 28 30 29 28 27 27 27 29 32 30 23 24 21 14 7 6 9 9 6 5 5 4
24 24 26 28 30 31 31 30 29 27 27 22 22 22 22 20 19 17 16 17 23 28 31 28 27 28 28 29 26 28 30 25 20 15 8 4 5 8 9 6 5 4 6
25 30 32 31 31 32 32 31 32 31 31 31 28 28 27 23 19 17 16 19 22 28 30 32 29 30 27 26 27 27 30 28 23 14 10 7 10 11 10 7 3 2 1
25 26 26 25 26 27 29 30 29 31 32 33 34 33 33 32 29 28 26 25 25 26 33 33 33 22 21 26 28 30 27 29 28 27 20 19 17 18 15 9 6 3 3
28 28 29 29 30 31 32 32 33 32 33 33 33 37 39 35 28 27 27 30 34 33 33 36 36 32 23 23 27 26 31 35 30 26 24 23 23 18 14 11 10 6 3
30 30 31 29 33 35 31 28 35 35 34 33 31 31 32 34 26 25 26 27 31 35 31 34 33 33 28 29 27 27 26 28 26 30 21 18 18 19 16 14 10 6 2
29 30 26 33 30 23 29 31 23 28 26 23 25 29 35 33 26 26 27 28 23 25 29 28 28 28 23 24 30 26 25 30 30 23 20 23 20 17 12 9 6 5 4
33 33 28 30 32 30 29 30 33 29 30 32 29 28 28 27 26 26 30 30 25 22 21 23 22 18 17 15 23 32 33 33 31 29 24 20 18 15 12 11 11 9 8
31 29 31 30 28 28 27 28 27 28 26 25 21 19 21 24 26 29 29 27 27 25 21 23 18 14 11 16 26 26 28 30 28 25 21 18 15 14 14 15 13 10 11
31 31 29 29 28 27 27 27 24 25 23 18 17 17 18 19 22 28 28 27 26 27 25 23 21 14 14 10 15 19 24 27 26 22 20 19 18 15 12 13 12 10 9
30 30 28 27 27 27 25 24 22 20 18 20 15 13 14 19 23 23 27 26 25 24 19 16 14 11 7 8 10 16 20 22 22 24 23 21 18 14 14 14 13 9 8
28 29 29 28 26 26 25 25 22 21 22 18 19 21 19 19 19 22 21 18 17 19 16 6 10 10 8 13 15 18 17 18 21 21 20 17 18 14 16 16 13 8 8
28 26 25 25 24 23 22 23 24 28 27 30 34 28 20 16 14 19 23 23 22 19 17 10 8 8 12 15 19 23 23 21 22 23 21 19 18 17 18 20 13 13 13
27 29 27 25 22 20 19 18 11 17 24 25 28 30 30 25 17 16 13 14 14 22 15 14 12 15 15 20 23 25 26 25 23 21 22 21 20 19 18 21 16 14 15
30 30 28 26 23 21 20 19 17 14 8 14 20 24 26 26 20 22 19 9 5 9 15 16 16 19 18 18 22 24 22 19 20 22 17 16 16 17 18 21 18 16 16
29 27 25 25 24 23 21 19 18 17 16 14 13 15 23 25 26 24 18 13 6 5 7 9 14 20 22 22 23 22 20 18 18 15 14 15 16 18 19 18 17 16 14
27 27 27 25 24 19 18 18 16 16 15 14 13 15 15 19 18 20 22 18 14 13 10 10 8 7 18 20 22 22 22 19 18 15 16 16 20 20 17 17 15 13 11
27 29 29 26 20 17 15 15 15 13 12 12 13 14 17 16 19 22 19 18 18 18 17 15 12 7 4 16 19 21 21 21 18 17 18 18 18 16 16 16 15 18 14
25 25 25 21 20 15 11 13 13 11 10 10 11 14 18 20 15 18 20 20 21 23 23 19 20 14 7 10 19 21 20 18 18 19 18 19 17 17 18 16 17 18 13
22 23 23 21 19 21 9 10 10 3 5 7 9 10 15 14 13 12 14 17 22 25 26 24 26 22 13 8 16 21 21 19 21 18 18 17 19 20 18 19 21 21 15
22 21 20 20 20 20 17 5 6 3 2 4 6 7 12 11 13 13 19 21 24 27 29 28 27 27 18 9 11 19 21 15 15 14 13 13 13 14 16 19 21 22 14
22 22 21 20 20 19 18 17 6 5 3 4 5 8 11 12 13 13 17 22 26 28 29 29 26 27 21 7 12 19 22 18 14 10 7 5 7 12 17 21 19 18 13
23 22 21 21 20 20 19 17 16 12 4 2 4 8 10 13 12 11 14 18 21 24 26 27 26 27 22 12 11 14 15 13 9 6 6 8 10 12 16 19 18 17 16
Wind_Direction
289 274 254 251 252 251 252 255 257 253 254 254 264 275 286 300 305 310 315 308 303 298 288 262 251 247 235 235 230 232 232 222 235 264 262 246 243 227 249 238 251 256 225
339 312 290 283 279 275 264 258 254 250 249 251 251 253 266 286 296 300 303 311 306 297 291 266 252 245 240 238 230 226 219 230 225 247 268 249 245 228 236 249 244 239 242
332 333 328 321 313 304 298 293 286 280 269 256 253 248 253 260 272 287 296 299 303 298 295 275 266 250 234 232 228 225 231 222 225 239 273 273 227 221 238 245 251 240 254
308 301 296 294 293 293 295 295 293 291 282 275 270 257 252 257 257 266 279 293 298 299 295 285 267 247 238 233 228 231 228 222 225 219 238 216 196 212 217 209 205 211 216
293 292 291 294 293 290 288 287 285 283 281 279 269 260 258 251 251 255 262 277 288 294 294 281 265 254 247 237 228 233 236 224 223 210 199 169 168 183 177 174 187 236 270
295 289 292 293 290 285 282 280 281 279 275 270 265 260 258 260 262 261 264 268 273 283 283 282 279 264 255 245 245 238 232 220 217 198 188 178 200 196 192 199 189 144 308
301 302 299 295 291 287 284 280 274 273 271 266 266 259 257 260 261 265 270 272 271 273 275 271 274 263 256 245 237 231 226 231 239 233 195 199 197 198 191 185 189 204 227
295 292 290 288 285 284 279 275 274 274 271 265 259 256 256 261 261 267 272 273 270 267 268 268 265 269 268 244 244 234 228 231 238 235 214 206 202 197 182 175 173 183 274
292 294 293 291 293 285 280 282 284 275 270 261 251 243 251 256 253 263 269 268 265 257 259 263 259 263 266 266 238 234 220 206 197 217 200 195 181 172 174 167 158 159 231
293 294 290 297 286 289 291 287 283 289 292 282 255 254 251 248 249 263 266 267 267 256 259 257 250 243 259 244 216 198 176 183 188 184 172 168 171 177 186 199 193 186 186
299 294 288 290 284 280 281 276 277 273 269 263 268 246 237 240 253 268 274 263 255 258 243 238 231 233 260 233 202 198 180 174 181 176 171 173 184 194 206 224 234 236 213
296 292 293 289 286 282 279 277 275 276 268 257 243 244 242 244 255 269 264 254 261 254 240 242 256 238 240 245 208 199 184 184 178 177 178 186 196 209 219 234 245 269 271
296 293 292 290 284 281 277 273 269 270 269 270 249 235 235 240 248 258 253 251 263 266 249 256 252 236 196 258 224 229 197 183 179 182 192 204 210 221 231 233 246 269 273
296 294 290 287 279 274 268 267 264 262 254 250 263 238 242 256 255 244 249 249 252 255 253 255 257 236 236 294 261 231 208 186 191 197 208 218 220 227 234 234 252 273 271
295 292 288 283 279 276 268 263 259 254 252 254 243 246 247 245 235 231 232 239 246 241 227 246 277 235 281 276 265 246 217 207 201 206 217 220 224 231 241 252 258 260 235
297 295 291 289 285 280 274 276 259 258 257 255 263 269 275 281 265 238 241 242 244 241 197 189 188 222 242 225 217 221 217 210 213 216 217 224 231 236 245 250 247 235 235
296 294 292 288 282 276 270 270 272 265 251 255 255 260 260 263 271 245 212 191 206 214 197 191 178 222 214 209 206 203 208 214 219 220 220 222 233 242 243 246 251 242 249
297 293 287 283 277 271 264 261 260 262 256 239 237 245 242 243 236 186 169 146 137 170 194 180 189 214 225 205 209 211 217 221 214 217 212 225 234 238 238 241 246 244 250
301 297 292 285 277 266 261 257 251 250 249 245 229 230 227 230 227 223 230 236 237 228 202 158 192 203 208 211 212 213 211 212 218 212 224 233 238 237 236 243 244 245 241
308 301 295 286 280 272 257 249 245 239 238 235 227 216 211 208 196 207 214 212 214 230 228 214 191 200 208 209 210 214 213 215 218 220 226 234 237 233 230 235 227 215 208
312 308 308 303 284 266 258 250 245 235 227 221 219 216 204 203 204 201 200 193 207 217 218 231 222 220 219 213 217 214 212 214 218 222 230 235 235 225 228 233 229 218 211
314 310 315 319 329 328 275 280 266 223 215 207 211 209 211 215 187 193 198 200 207 211 218 226 232 229 232 214 216 217 212 213 220 222 227 233 235 233 240 232 209 198 195
327 330 332 338 343 343 356 12 16 142 198 204 197 194 202 199 190 194 188 190 195 205 212 221 230 233 234 243 217 212 209 213 216 216 222 229 232 231 226 209 196 188 186
341 341 341 344 349 352 356 33 43 50 175 184 186 187 179 189 187 178 185 192 192 201 205 214 225 229 225 244 206 201 199 186 168 173 184 198 205 216 212 203 204 193 183
350 349 350 351 351 352 353 1 25 58 91 147 170 166 166 184 193 199 187 190 193 198 201 211 219 222 215 200 178 167 170 170 170 170 178 201 206 215 213 202 202 189 185
354 356 356 355 357 358 360 357 357 7 53 162 175 176 180 186 190 204 197 189 187 196 200 206 217 217 209 198 171 168 167 167 169 197 228 242 226 215 206 200 183 190 182